24h Messdaten per 26.09.2017 um 05:50:53

Datum Zeit Luftdruck Temp Balkon Feuchte Balkon Temp Strasse Feuchte Strasse Wind km/h Wind Boe Wind aus (Grad) Regen l/15min Licht Lux Sonne h/Monat
26.09.17 05:50:53 1014 14.3 80 12.7 92 0 63.15
26.09.17 05:45:53 1014 14.5 82 12.7 93 0 63.15
26.09.17 05:40:53 1014 14.6 82 12.8 92 0 63.15
26.09.17 05:35:54 1014 14.7 82 12.8 92 0 63.15
26.09.17 05:30:53 1014 14.9 83 12.8 93 0 63.15
26.09.17 05:25:53 1014 15.0 83 12.8 92 0 63.15
26.09.17 05:20:53 1014 15.1 83 12.8 92 0 63.15
26.09.17 05:15:53 1014 15.2 83 12.8 92 0 63.15
26.09.17 05:10:53 1014 15.1 82 12.8 92 0 63.15
26.09.17 05:05:54 1014 15.0 82 12.9 92 0 63.15
26.09.17 05:00:54 1014 15.1 82 12.8 92 0 63.15
26.09.17 04:55:54 1014 15.2 82 12.8 92 0.0 0 63.15
26.09.17 04:50:53 1014 15.3 83 12.9 92 0.0 0 63.15
26.09.17 04:45:53 1014 15.2 83 12.9 92 0.0 0 63.15
26.09.17 04:40:53 1014 15.1 83 0.0 0 63.15
26.09.17 04:35:53 1014 14.9 82 12.9 92 0.0 0 63.15
26.09.17 04:30:53 1014 14.9 82 13.0 92 0.0 0 63.15
26.09.17 04:25:53 1014 14.8 82 12.9 92 0.0 0 63.15
26.09.17 04:20:53 1014 14.9 82 12.9 92 0.0 0 63.15
26.09.17 04:15:53 1014 15.0 82 12.8 92 0.0 0 63.15
26.09.17 04:10:53 1014 15.1 83 12.9 91 0.0 0 63.15
26.09.17 04:05:54 1014 15.1 83 12.9 91 0.0
26.09.17 04:00:54 1014 15.1 83 12.9 91 0.0 0 63.15
26.09.17 03:55:54 1014 14.8 82 12.9 91 0.0 0.0 292.5 0.0 0 63.15
26.09.17 03:50:54 1014 14.8 82 12.9 91 0.0 0.0 90 0.0 0 63.15
26.09.17 03:45:53 1014 14.8 82 13.0 91 0.0 0.0 0 0.0 0 63.15
26.09.17 03:40:53 1014 14.9 82 13.0 91 0.0 0.0 22.5 0.0 0 63.15
26.09.17 03:35:53 1014 13.0 91 0.0 0.0 0 0.0 0 63.15
26.09.17 03:30:53 1014 14.9 82 13.0 91 0.0 0.0 315 0.0 0 63.15
26.09.17 03:25:53 1014 14.7 82 13.0 91 0.0 0.0 337.5 0.0 0 63.15
26.09.17 03:20:53 1014 14.7 81 13.0 90 0.0 0.0 315 0.0 0 63.15
26.09.17 03:15:53 1014 14.5 81 13.0 90 0.0 0.0 315 0.0 0 63.15
26.09.17 03:10:53 1014 14.5 81 13.1 90 0.0 0.0 0 0.0 0 63.15
26.09.17 03:05:53 1014 14.3 80 13.1 90 0.0 0.0 292.5 0.0 0 63.15
26.09.17 03:00:53 1014 14.3 80 13.1 90 0.0 0.0 315 0.0 0 63.15
26.09.17 02:55:53 1014 14.3 80 13.0 90 0.0 0.0 337.5 0.0 0 63.15
26.09.17 02:50:54 1014 14.3 80 13.0 90 0.0 0.0 292.5 0.0 0 63.15
26.09.17 02:45:54 1014 14.2 80 13.0 90 0.0 0.0 315 0.0 0 63.15
26.09.17 02:40:53 1014 14.1 79 13.0 90 0.0 0.0 0 0.0 0 63.15
26.09.17 02:35:54 1014 14.0 79 13.0 90 0.0 0.0 315 0.0 0 63.15
26.09.17 02:30:54 1014 14.0 79 13.0 90 0.0 0.0 315 0.0 0 63.15
26.09.17 02:25:53 1014 14.1 79 13.1 89 0.0 0.0 337.5 0.0 0 63.15
26.09.17 02:20:54 1014 13.8 78 13.1 89 0.0 0.0 315 0.0 0 63.15
26.09.17 02:15:54 1014 13.8 78 13.1 89 0.0 0.0 0 0.0 0 63.15
26.09.17 02:10:54 1014 13.8 78 13.2 89 0.0 0.0 22.5 0.0 0 63.15
26.09.17 02:05:53 1014 13.8 78 13.2 89 0.0 0.0 315 0.0 0 63.15
26.09.17 02:00:53 1014 13.8 78 13.2 89 0.0 0.0 315 0.0 0 63.15
26.09.17 01:55:53 1014 13.9 78 13.2 89 0.0 0.0 292.5 0.0 0 63.15
26.09.17 01:50:53 1014 13.7 78 13.2 89 0.0 0.0 0 0.0 0 63.15
26.09.17 01:45:53 1014 13.5 77 13.2 89 0.0 0.0 337.5 0.0 0 63.15
26.09.17 01:40:53 1014 13.5 77 13.2 89 0.0 0.0 67.5 0.0 0 63.15
26.09.17 01:35:53 1014 13.4 77 13.1 89 0.0 0.0 0 0.0 0 63.15
26.09.17 01:30:53 1014 13.3 77 13.1 89 0.0 0.0 247.5 0.0 0 63.15
26.09.17 01:25:53 1014 13.2 89 0.0 0.0 90 0.0 0 63.15
26.09.17 01:20:53 1014 13.2 76 13.1 90 0.0 0.0 292.5 0.0 0 63.15
26.09.17 01:15:53 1014 13.2 76 13.0 90 0.0 0.0 270 0.0 0 63.15
26.09.17 01:10:53 1014 13.3 76 13.0 90 0.0 0.0 292.5 0.0 0 63.15
26.09.17 01:05:53 1014 13.1 76 13.0 90 0.0 0.0 292.5 0.0 0 63.15
26.09.17 01:00:53 1014 12.9 76 13.0 90 0.0 0.0 315 0.0 0 63.15
26.09.17 00:55:53 1014 12.8 76 13.0 90 0.0 0.0 292.5 0.0 0 63.15
26.09.17 00:50:53 1014 12.8 76 13.0 90 0.0 0.0 67.5 0.0 0 63.15
26.09.17 00:45:53 1014 12.8 76 12.9 89 0.0 0.0 315 0.0 0 63.15
26.09.17 00:40:53 1014 12.4 75 12.8 89 0.0 0.0 315 0.0 0 63.15
26.09.17 00:35:52 1014 12.7 88 0.0 0.0 315 0.0 0 63.15
26.09.17 00:30:52 1014 12.0 74 12.9 87 0.0 0.0 315 0.0 0 63.15
26.09.17 00:25:52 1014 12.4 75 13.1 87 0.0 0.0 315 0.0 0 63.15
26.09.17 00:20:53 1014 13.2 87 0.0 0.0 337.5 0.0 0 63.15
26.09.17 00:15:53 1014 12.3 74 13.5 87 0.0 0.0 292.5 0.0 0 63.15
26.09.17 00:10:53 1014 12.1 74 13.5 87 0.0 0.0 315 0.0 0 63.15
26.09.17 00:05:52 1014 12.2 73 13.6 87 0.0 0.0 315 0.0 0 63.15
26.09.17 00:00:52 1014 12.4 74 13.6 87 0.0 0.0 315 0.0 0 63.15
25.09.17 23:55:52 1014 12.7 75 13.6 87 0.0 0.0 292.5 0.0 0 63.15
25.09.17 23:50:53 1014 12.8 74 13.7 86 0.0 0.0 315 0.0 0 63.15
25.09.17 23:45:53 1014 12.6 74 13.8 86 0.0 0.0 337.5 0.0 0 63.15
25.09.17 23:40:53 1014 12.3 74 14.0 86 0.0 0.0 315 0.0 0 63.15
25.09.17 23:35:53 1014 12.1 73 14.0 86 0.0 0.0 315 0.0 0 63.15
25.09.17 23:30:53 1014 12.2 73 14.1 87 0.0 0.0 292.5 0.0 0 63.15
25.09.17 23:25:53 1014 12.3 73 14.1 87 0.0 0.0 315 0.0 0 63.15
25.09.17 23:20:53 1014 12.5 73 14.1 87 0.0 0.0 337.5 0.0 0 63.15
25.09.17 23:15:53 1014 12.8 73 14.0 87 0.4 0.0 315 0.0 0 63.15
25.09.17 23:10:53 1014 13.0 73 14.0 87 0.4 1.4 270 0.0 0 63.15
25.09.17 23:05:53 13.0 73 14.0 87 0.0 0.0 315 0.0 0 63.15
25.09.17 23:00:53 1014 13.0 72 14.1 86 0.0 0.0 270 0.0 0 63.15
25.09.17 22:55:53 1014 12.7 72 14.3 86 0.4 0.0 337.5 0.0 0 63.15
25.09.17 22:50:53 1014 12.6 71 14.3 85 0.0 0.0 270 0.0 0 63.15
25.09.17 22:45:53 1014 12.6 71 14.3 85 0.0 0.0 315 0.0 0 63.15
25.09.17 22:40:53 1014 12.7 71 14.3 84 0.0 2.5 337.5 0.0 0 63.15
25.09.17 22:35:53 1014 12.7 70 14.3 84 0.0 0.0 337.5 0.0 0 63.15
25.09.17 22:30:53 1014 12.5 69 14.5 83 0.4 0.0 0 0.0 0 63.15
25.09.17 22:25:53 1014 12.0 68 14.6 82 0.7 0.0 315 0.0 0 63.15
25.09.17 22:20:53 1014 14.6 82 0.4 2.2 270 0.0 0 63.15
25.09.17 22:15:53 1014 12.2 68 14.7 81 0.0 0.0 292.5 0.0 0 63.15
25.09.17 22:10:53 1014 12.3 67 14.8 81 0.0 0.0 270 0.0 0 63.15
25.09.17 22:05:54 1014 12.2 66 15.0 80 0.4 0.0 22.5 0.0 0 63.15
25.09.17 22:00:54 1014 11.9 65 15.1 79 0.7 0.0 337.5 0.0 0 63.15
25.09.17 21:55:54 1014 11.4 63 15.2 78 1.1 0.0 0 0.0 0 63.15
25.09.17 21:50:52 1014 11.4 63 15.4 77 0.7 2.2 292.5 0.0 0 63.15
25.09.17 21:45:52 1014 11.1 62 15.4 77 0.0 0.0 315 0.0 0 63.15
25.09.17 21:40:52 1014 10.7 61 15.5 77 0.0 0.0 270 0.0 0 63.15
25.09.17 21:35:54 1014 10.9 60 15.5 77 0.0 0.0 292.5 0.0 0 63.15
25.09.17 21:30:54 1014 10.9 60 15.6 76 0.0 0.0 270 0.0 0 63.15
25.09.17 21:25:54 1014 10.9 60 15.7 76 0.0 0.0 180 0.0 0 63.15
25.09.17 21:20:52 1014 11.0 59 15.8 76 0.0 0.0 135 0.0 0 63.15
25.09.17 21:15:52 1014 11.1 59 15.9 76 0.4 0.0 67.5 0.0 0 63.15
25.09.17 21:10:52 1014 11.3 59 16.0 75 1.1 0.0 337.5 0.0 0 63.15
25.09.17 21:05:53 1014 11.4 58 16.0 75 1.4 2.2 337.5 0.0 0 63.15
25.09.17 21:00:53 1014 11.4 57 16.1 74 0.7 2.5 337.5 0.0 0 63.15
25.09.17 20:55:53 1014 11.6 57 16.2 74 0.0 0.0 337.5 0.0 0 63.15
25.09.17 20:50:53 1014 11.7 56 16.3 73 0.0 0.0 292.5 0.0 0 63.15
25.09.17 20:45:52 1014 11.7 56 16.3 73 0.4 0.0 337.5 0.0 0 63.15
25.09.17 20:40:52 1014 11.8 55 16.4 72 0.7 1.8 0 0.0 0 63.15
25.09.17 20:35:52 1014 11.8 54 16.4 72 0.4 0.0 292.5 0.0 0 63.15
25.09.17 20:30:52 1014 11.9 54 16.5 71 0.0 0.0 292.5 0.0 0 63.15
25.09.17 20:25:52 1014 12.0 53 16.6 71 0.0 0.0 292.5 0.0 0 63.15
25.09.17 20:20:52 1014 12.0 53 16.7 70 0.0 0.0 292.5 0.0 0 63.15
25.09.17 20:15:52 1014 16.8 70 0.4 0.0 315 0.0 0 63.15
25.09.17 20:10:52 1014 12.2 52 16.9 70 0.4 0.0 270 0.0 0 63.15
25.09.17 20:05:52 1014 12.4 49 17.0 69 0.0 0.0 270 0.0 1 63.15
25.09.17 20:00:52 1014 12.5 47 17.1 68 0.0 0.0 292.5 0.0 6 63.15
25.09.17 19:55:52 1014 17.2 68 0.0 0.0 292.5 0.0 12 63.15
25.09.17 19:50:53 1014 12.6 44 17.2 68 0.0 0.0 337.5 0.0 17 63.15
25.09.17 19:45:53 1014 12.6 41 17.3 68 0.0 0.0 337.5 0.0 32 63.15
25.09.17 19:40:53 1014 12.7 39 17.5 67 0.0 0.0 337.5 0.0 68 63.15
25.09.17 19:35:53 1014 12.8 38 17.6 67 0.0 0.0 337.5 0.0 135 63.15
25.09.17 19:30:53 1014 13.1 36 17.6 67 0.0 0.0 337.5 0.0 239 63.15
25.09.17 19:25:53 1014 13.4 35 17.7 67 0.0 0.0 337.5 0.0 384 63.15
25.09.17 19:20:53 1014 13.6 34 17.7 67 0.0 0.0 337.5 0.0 585 63.15
25.09.17 19:15:53 1013 14.0 33 17.7 66 0.0 0.0 337.5 0.0 857 63.15
25.09.17 19:10:53 1013 14.4 31 17.9 66 0.0 0.0 337.5 0.0 1260 63.15
25.09.17 19:05:53 1013 14.5 30 17.9 65 0.0 0.0 337.5 0.0 1530 63.15
25.09.17 19:00:52 1014 15.1 30 18.0 64 0.0 0.0 180 0.0 2020 63.15
25.09.17 18:55:52 1014 15.6 28 18.2 64 0.0 0.0 180 0.0 2230 63.15
25.09.17 18:50:53 1013 18.3 63 0.0 0.0 180 0.0 2730 63.15
25.09.17 18:45:53 1013 16.1 23 18.4 62 0.0 0.0 135 0.0 3000 63.15
25.09.17 18:40:53 1013 18.5 62 0.0 0.0 135 0.0 4120 63.15
25.09.17 18:35:52 1013 17.0 20 18.7 61 0.0 0.0 135 0.0 5000 63.15
25.09.17 18:30:52 1013 17.3 20 18.8 60 0.0 0.0 135 0.0 6270 63.15
25.09.17 18:25:52 17.6 20 18.9 59 0.0 0.0 135 0.0 7210 63.15
25.09.17 18:20:53 1013 18.3 20 19.0 59 0.0 0.0 135 0.0
25.09.17 18:15:53 1013 19.1 20 19.0 59 0.0 0.0 135 0.0 16800 63.15
25.09.17 18:10:53 1013 19.7 20 19.1 59 0.0 0.0 135 0.0 20800 63.12
25.09.17 18:05:54 1013 0.0 0.0 135 0.0 17800 63.12
25.09.17 18:00:54 1013 19.1 58 0.0 0.0 135 0.0 22100 63.09
25.09.17 17:55:54 1013 19.2 58 0.0 0.0 135 0.0 13700 63.06
25.09.17 17:50:52 1013 18.8 20 19.3 57 0.0 0.0 135 0.0 12600 63.06
25.09.17 17:45:52 1013 19.1 20 0.0 0.0 180 0.0 13300 63.06
25.09.17 17:40:52 1013 18.8 20 19.3 52 0.0 0.0 180 0.0 14400 63.06
25.09.17 17:35:53 1013 19.1 20 19.3 49 0.0 0.0 180 0.0 14700 63.06
25.09.17 17:30:53 1013 18.9 20 19.4 48 0.0 0.0 180 0.0 13200 63.06
25.09.17 17:25:53 1013 18.8 20 19.4 47 0.0 0.0 180 0.0 10200 63.06
25.09.17 17:20:52 1013 18.9 20 19.5 47 0.0 0.0 180 0.0 9300 63.06
25.09.17 17:15:52 1013 19.6 20 19.6 47 0.0 0.0 0 0.0 9830 63.06
25.09.17 17:10:52 1013 19.7 20 19.6 45 0.0 0.0 90 0.0 11100 63.06
25.09.17 17:05:53 1013 19.4 20 19.6 45 0.0 0.0 247.5 0.0 10800 63.06
25.09.17 17:00:53 1013 20.1 20 19.6 44 0.4 0.0 157.5 0.0 10300 63.06
25.09.17 16:55:53 1013 21.3 20 19.7 46 0.4 1.8 45 0.0 14400 63.06
25.09.17 16:50:52 1013 21.9 20 19.7 45 0.4 0.0 135 0.0 34800 63.03
25.09.17 16:45:52 1013 20.4 20 19.6 45 0.4 0.0 135 0.0 33300 63.01
25.09.17 16:40:52 1013 20.4 20 19.6 45 0.4 2.2 0 0.0 17400 62.58
25.09.17 16:35:53 1013 21.3 20 19.7 46 0.7 2.5 225 0.0 19700 62.58
25.09.17 16:30:53 1013 20.5 20 19.6 47 1.1 2.2 90 0.0 20000 62.53
25.09.17 16:25:53 1013 21.3 20 19.6 47 1.1 0.0 112.5 0.0 20300 62.50
25.09.17 16:20:52 1013 21.2 20 1.4 2.5 247.5 0.0 20600 62.45
25.09.17 16:15:52 1013 21.4 20 19.6 48 1.4 1.8 135 0.0 25100 62.42
25.09.17 16:10:52 1013 20.7 20 19.6 48 1.1 2.9 135 0.0 25200 62.37
25.09.17 16:05:53 1013 20.8 20 19.6 48 1.4 3.6 337.5 0.0 19500 62.34
25.09.17 16:00:53 1013 21.1 20 19.7 49 1.4 0.0 135 0.0 16900 62.34
25.09.17 15:55:53 1013 22.4 20 19.7 49 1.8 4.0 157.5 0.0 18200 62.34
25.09.17 15:50:52 1013 22.1 20 19.7 48 1.8 4.3 157.5 0.0 50300 62.32
25.09.17 15:45:52 1013 22.2 20 19.8 47 1.4 5.4 180 0.0 23900 62.27
25.09.17 15:40:52 1013 24.4 20 20.0 45 1.1 0.0 202.5 0.0 59800 62.21
25.09.17 15:35:53 1013 26.2 20 20.1 43 0.7 1.4 270 0.0 62900 62.16
25.09.17 15:30:53 1013 24.7 20 20.1 42 0.7 2.9 157.5 0.0 30100 62.11
25.09.17 15:25:53 1013 24.8 20 20.0 42 0.7 0.0 135 0.0 32800 62.06
25.09.17 15:20:52 1013 25.7 20 20.1 42 0.4 1.8 292.5 0.0 46200 62.03
25.09.17 15:15:52 1013 27.6 20 20.1 42 0.7 0.0 22.5 0.0 53300 61.58
25.09.17 15:10:52 1013 27.8 20 20.1 43 1.1 0.0 292.5 0.0 67500 61.52
25.09.17 15:05:52 1013 27.3 20 20.1 42 1.4 1.8 135 0.0 65200 61.47
25.09.17 15:00:52 1013 25.6 20 20.1 42 1.1 1.4 90 0.0 71500 61.42
25.09.17 14:55:52 1013 28.1 20 20.1 43 0.7 0.0 180 0.0 69700 61.37
25.09.17 14:50:53 1013 26.2 20 20.0 42 1.1 1.8 315 0.0 65500 61.31
25.09.17 14:45:53 1013 29.3 20 20.1 42 1.4 1.8 135 0.0 71300 61.28
25.09.17 14:40:53 1013 30.0 20 20.0 42 0.7 2.9 157.5 0.0 75700 61.23
25.09.17 14:35:53 1013 19.7 44 1.1 2.2 315 0.0 75800 61.18
25.09.17 14:30:53 1013 1.1 1.4 292.5 0.0 72100 61.15
25.09.17 14:25:52 1013 19.5 44 1.4 1.8 135 0.0 32600 61.07
25.09.17 14:20:53 1013 28.2 20 19.6 44 1.1 2.2 337.5 0.0 73800 61.05
25.09.17 14:15:53 1013 29.2 20 19.5 45 1.1 1.8 135 0.0 80900 60.59
25.09.17 14:10:53 1013 27.6 20 19.4 46 1.4 0.0 337.5 0.0 81600 60.54
25.09.17 14:05:52 1013 27.3 20 19.4 46 1.4 2.5 90 0.0 82200 60.49
25.09.17 14:00:52 1013 23.1 20 19.3 48 1.4 2.5 90 0.0 41700 60.44
25.09.17 13:55:52 1014 23.3 20 19.2 51 1.4 2.5 157.5 0.0 34100 60.38
25.09.17 13:50:52 1014 19.1 53 1.8 3.6 202.5 0.0 21300 60.33
25.09.17 13:45:52 1014 19.2 56 1.8 4.0 157.5 0.0 50100 60.31
25.09.17 13:40:52 1014 19.2 57 1.1 4.3 180 0.0 23300 60.26
25.09.17 13:35:52 1014 27.3 20 19.3 59 1.1 2.9 90 0.0 71500 60.23
25.09.17 13:30:52 1014 28.5 20 19.3 60 1.4 1.8 67.5 0.0 77400 60.15
25.09.17 13:25:52 1014 26.5 20 19.1 61 1.8 1.8 157.5 0.0 78500 60.12
25.09.17 13:20:52 1014 24.8 20 19.0 62 1.8 4.0 90 0.0 25200 60.07
25.09.17 13:15:52 1014 28.9 20 18.9 63 1.8 4.7 180 0.0 78000 60.02
25.09.17 13:10:52 1014 28.4 20 18.9 64 1.8 2.2 247.5 0.0 73100 59.54
25.09.17 13:05:53 1014 27.8 20 18.8 65 2.2 3.6 135 0.0 71900 59.49
25.09.17 13:00:53 1014 27.7 20 18.9 67 2.5 2.9 225 0.0 70000 59.46
25.09.17 12:55:53 1014 27.7 20 18.6 67 2.2 4.0 202.5 0.0 68800 59.41
25.09.17 12:50:52 1014 29.0 20 18.4 69 1.8 0.0 225 0.0
25.09.17 12:45:52 1014 28.8 20 18.2 70 1.4 2.2 180 0.0 71600 59.33
25.09.17 12:40:52 1014 26.2 20 1.4 2.9 135 0.0 67000 59.28
25.09.17 12:35:51 1014 26.7 20 17.9 70 1.4 7.6 90 0.0 65200 59.23
25.09.17 12:30:51 1014 26.7 20 17.9 71 1.4 0.0 22.5 0.0 66000 59.17
25.09.17 12:25:51 1014 24.9 20 17.8 72 1.4 0.0 180 0.0 65800 59.12
25.09.17 12:20:52 1014 25.3 20 17.6 72 1.4 0.0 135 0.0 64500 59.07
25.09.17 12:15:52 1014 26.3 20 17.5 73 1.4 4.7 180 0.0 64200 59.02
25.09.17 12:10:52 1014 25.8 20 17.3 74 1.4 3.6 112.5 0.0 63200 58.56
25.09.17 12:05:52 1014 26.5 20 17.1 75 1.8 3.2 67.5 0.0 62600 58.51
25.09.17 12:00:51 1014 24.3 20 17.0 76 1.4 4.7 202.5 0.0 60100 58.43
25.09.17 11:55:51 1014 24.5 20 16.8 79 1.1 0.0 135 0.0
25.09.17 11:50:52 1014 24.1 20 16.6 82 1.4 3.2 135 0.0 59800 58.38
25.09.17 11:45:52 1014 26.6 20 16.3 84 1.8 1.4 90 0.0 58300 58.33
25.09.17 11:40:52 1014 27.2 20 16.2 84 2.5 0.0 225 0.0 58200 58.27
25.09.17 11:35:52 1014 24.1 20 15.9 86 2.5 9.0 90 0.0 57100 58.22
25.09.17 11:30:52 1014 22.7 20 15.7 87 2.2 6.8 90 0.0 57100 58.17
25.09.17 11:25:52 1014 24.0 20 15.4 88 1.8 0.0 90 0.0 55800 58.12
25.09.17 11:20:52 1014 25.8 20 15.4 89 1.4 2.2 135 0.0 54400 58.04
25.09.17 11:15:52 1014 24.8 20 15.1 90 1.4 2.9 292.5 0.0 54500 58.01
25.09.17 11:10:52 1014 25.5 20 14.8 91 1.8 0.0 315 0.0 53000 57.56
25.09.17 11:05:52 1014 25.5 20 14.7 92 2.2 2.9 270 0.0 52200 57.51
25.09.17 11:00:52 1014 23.3 20 14.5 93 2.2 2.2 180 0.0 51900 57.48
25.09.17 10:55:52 1014 23.7 20 14.3 94 1.8 2.9 337.5 0.0 51000 57.43
25.09.17 10:50:52 1014 22.8 20 14.1 94 2.2 2.5 180 0.0 48800 57.38
25.09.17 10:45:52 1014 23.4 20 14.1 94 2.2 3.2 90 0.0 48500 57.32
25.09.17 10:40:52 1014 23.4 20 13.8 95 2.2 2.9 135 0.0 46700 57.27
25.09.17 10:35:52 1014 23.3 20 13.6 95 2.5 1.8 90 0.0 45300 57.22
25.09.17 10:30:52 1014 24.7 22 13.5 95 3.2 2.9 225 0.0 43600 57.17
25.09.17 10:25:52 1014 21.7 20 13.3 96 2.9 3.2 67.5 0.0 41400 57.09
25.09.17 10:20:52 1014 22.2 21 13.2 96 2.9 4.0 135 0.0 40900 57.03
25.09.17 10:15:52 1014 21.8 25 12.9 96 2.2 5.0 202.5 0.0 39200 56.58
25.09.17 10:10:52 1014 21.7 26 12.8 96 2.5 4.0 112.5 0.0 38400 56.56
25.09.17 10:05:52 1014 21.8 32 12.6 96 2.5 3.2 270 0.0 37800 56.53
25.09.17 10:00:52 1014 21.0 30 12.4 97 2.5 3.6 157.5 0.0 36500 56.48
25.09.17 09:55:52 1014 21.0 31 2.2 4.7 135 0.0 35200 56.42
25.09.17 09:50:52 1014 20.9 36 1.4 6.5 22.5 0.0 34800 56.37
25.09.17 09:45:51 1014 21.3 38 11.9 97 1.8 1.8 22.5 0.0 34000 56.32
25.09.17 09:40:51 1014 21.5 46 2.2 0.0 135 0.0 32800 56.27
25.09.17 09:35:52 1014 21.4 59 11.9 97 2.5 3.6 135 0.0 30800 56.19
25.09.17 09:30:52 1014 20.8 65 11.8 97 2.9 2.9 247.5 0.0 30300 56.16
25.09.17 09:25:52 1014 20.8 84 11.5 96 1.8 2.9 67.5 0.0 29000 56.11
25.09.17 09:20:52 1014 19.3 88 11.4 96 1.4 3.6 45 0.0 27800 56.06
25.09.17 09:15:52 1014 19.1 89 11.2 96 1.1 1.4 157.5 0.0 26800 56.00
25.09.17 09:10:52 1014 18.7 89 11.0 96 1.4 2.9 67.5 0.0 25100 55.55
25.09.17 09:05:52 1014 18.6 89 10.9 96 1.4 0.0 112.5 0.0 24400 55.53
25.09.17 09:00:52 1014 19.5 89 10.8 95 2.5 5.4 67.5 0.0 22800 55.47
25.09.17 08:55:52 1014 21.2 88 10.7 95 2.2 0.0 337.5 0.0 21500 55.42
25.09.17 08:50:51 1014 22.6 87 10.7 95 2.2 6.1 0 0.0 19700 55.39
25.09.17 08:45:51 1014 22.1 88 10.7 95 1.8 1.8 135 0.0 18100 55.39
25.09.17 08:40:51 1014 22.0 88 10.7 95 1.1 0.0 292.5 0.0 16600 55.39
25.09.17 08:35:52 1014 21.3 89 10.7 94 0.7 3.2 67.5 0.0 14700 55.39
25.09.17 08:30:51 1014 20.3 89 10.6 94 1.1 0.0 180 0.0 13000 55.39
25.09.17 08:25:51 1014 19.5 90 10.6 94 1.1 3.6 67.5 0.0 9910 55.39
25.09.17 08:20:52 1014 17.8 90 10.6 93 1.4 2.9 67.5 0.0 5110 55.39
25.09.17 08:15:52 1014 17.5 91 10.6 93 0.7 1.4 135 0.0 4580 55.39
25.09.17 08:10:52 1014 17.1 91 10.6 93 0.4 0.0 180 0.0 3950 55.39
25.09.17 08:05:51 1014 16.6 91 10.6 92 0.7 0.0 135 0.0 3520 55.39
25.09.17 08:00:51 1014 16.4 91 10.6 92 0.7 0.0 225 0.0 2850 55.39
25.09.17 07:55:51 1014 15.8 91 10.5 92 0.0 0.0 135 0.0 2410 55.39
25.09.17 07:50:52 1014 15.8 91 10.5 91 0.0 0.0 157.5 0.0 1950 55.39
25.09.17 07:45:51 1014 15.7 90 10.4 91 0.0 0.0 135 0.0 1510 55.39
25.09.17 07:40:51 1014 15.7 90 10.4 91 0.0 0.0 90 0.0 973 55.39
25.09.17 07:35:52 1014 15.5 91 10.4 91 0.0 0.0 135 0.0 821 55.39
25.09.17 07:30:52 1014 15.6 91 0.0 0.0 22.5 0.0 682 55.39
25.09.17 07:25:52 1014 15.6 91 10.5 91 0.0 0.0 270 0.0 445 55.39
25.09.17 07:20:52 1014 15.4 91 10.5 91 0.0 0.0 135 0.0 253 55.39
25.09.17 07:15:52 1014 15.4 90 0.4 0.0 157.5 0.0 129 55.39
25.09.17 07:10:52 1014 15.3 90 10.5 92 0.7 0.0 67.5 0.0 60 55.39
25.09.17 07:05:52 1014 15.5 90 10.5 91 1.4 2.9 90 0.0 0 55.39
25.09.17 07:00:52 1014 15.5 90 10.4 91 1.4 4.3 90 0.0 0 55.39
25.09.17 06:55:52 1014 15.6 90 0.7 0.0 157.5 0.0 0 55.39
25.09.17 06:50:52 1014 15.8 91 10.5 92 0.7 2.5 67.5 0.0 0 55.39
25.09.17 06:45:52 1014 15.8 91 10.5 92 0.4 1.8 135 0.0 0 55.39
25.09.17 06:40:52 1014 15.5 90 10.4 91 0.0 1.4 112.5 0.0
25.09.17 06:35:52 1014 10.4 91 0.0 0.0 22.5 0.0 0 55.39
25.09.17 06:30:52 1014 16.0 91 10.5 91 0.0 2.2 90 0.0 0 55.39
25.09.17 06:25:52 1014 15.8 90 10.5 91 0.4 0.0 45 0.0 0 55.39
25.09.17 06:20:52 1014 15.6 90 10.6 91 0.7 0.0 67.5 0.0 0 55.39
25.09.17 06:15:52 1014 15.7 90 10.7 91 0.4 4.3 45 0.0 0 55.39
25.09.17 06:10:52 15.9 90 10.7 91 0.0 0.0 67.5 0.0 0 55.39
25.09.17 06:05:52 1014 15.8 90 10.7 91 0.0 0.0 22.5 0.0 0 55.39
25.09.17 06:00:52 1014 15.9 90 10.6 91 0.0 0.0 90 0.0 0 55.39
25.09.17 05:55:52 1014 15.6 90 10.6 91 0.0 0.0 292.5 0.0 0 55.39
Index
© 2002-2012 Thomas Dreßler
Alle Rechte vorbehalten
letzte Scriptänderung 12.11.2012